User: anonymous   Login
Location: Unspecified
(39.6445°N, 0.0000°E)
Time: 17:44:12
(UTC+00:00)
Language:

N. Korean satellite - Orbit

View from above orbital plane
View from above orbital plane
View from above satellite
View from above satellite

Ground track
Ground track

The orbit data is extracted from the following two-line orbital elements,

1 39026U 12072A   19228.93496478 +.00000656 +00000-0 +26342-4 0  9992
2 39026 097.2121 230.1699 0036239 249.8307 109.9034 15.27922418370580
Epoch (UTC): 16 August 2019 22:26:20
Eccentricity: 0.0036239
inclination: 97.2121°
perigee height: 457 km
apogee height: 507 km
right ascension of ascending node: 230.1699°
argument of perigee: 249.8307°
revolutions per day: 15.27922418
mean anomaly at epoch: 109.9034°
orbit number at epoch: 37058

The dashed part of the orbit path shows where the satellite is in the earth's shadow,  

DLR